Location: Huppendorf
(49.9333°N, 11.1500°E)
Time: 14:55:00
(UTC+00:00)

USA 238 DEB - Pass Details

Date: 27 February 2020
Orbit: 1020 x 1192 km, 63.4° (Epoch: 12 March)

Event Time Altitude Azimuth Distance (km) Brightness Sun altitude
Rises 19:58:05 0° 315° (NW) 3,945 7.7 -29.9°
Reaches altitude 10° 20:00:48 10° 311° (NW) 3,008 6.9 -30.3°
Maximum altitude 20:07:42 51° 238° (WSW) 1,428 4.4 -31.3°
Enters shadow 20:09:20 43° 201° (SSW) 1,570 4.4 -31.5°
